| time (UTC) | temp F | wind direction | speed MPH | gust MPH | rain 1hr in | rain 24hr in | rain mn in | humidity % | barometer mb |
| 20260502232522 | 53 | 96 | 0.0 | 2.0 | 0.00 | 0.49 | 0.49 | 88 | 1012.5 |
| 20260502231523 | 54 | 59 | 0.0 | 1.0 | 0.00 | 0.49 | 0.49 | 87 | 1012.4 |
| 20260502230523 | 54 | 19 | 0.0 | 1.0 | 0.00 | 0.49 | 0.49 | 87 | 1012.3 |
| 20260502225523 | 54 | 39 | 1.0 | 2.0 | 0.00 | 0.49 | 0.49 | 87 | 1012.3 |
| 20260502224523 | 54 | 19 | 1.0 | 1.0 | 0.00 | 0.49 | 0.49 | 86 | 1012.3 |
| 20260502223524 | 54 | 71 | 1.0 | 2.0 | 0.00 | 0.49 | 0.49 | 85 | 1012.3 |
| 20260502222524 | 54 | 15 | 1.0 | 1.0 | 0.00 | 0.49 | 0.49 | 85 | 1012.3 |
| 20260502221524 | 55 | 169 | 0.0 | 1.0 | 0.00 | 0.49 | 0.49 | 84 | 1012.2 |
| 20260502220524 | 55 | 19 | 1.0 | 2.0 | 0.00 | 0.49 | 0.49 | 83 | 1012.0 |
| 20260502215524 | 55 | 66 | 1.0 | 2.0 | 0.00 | 0.49 | 0.49 | 84 | 1011.8 |
| 20260502214545 | 55 | 67 | 1.0 | 2.0 | 0.00 | 0.49 | 0.49 | 82 | 1012.0 |
| 20260502213524 | 55 | 16 | 1.0 | 2.0 | 0.00 | 0.49 | 0.49 | 83 | 1011.9 |
| 20260502212545 | 55 | 14 | 2.0 | 4.0 | 0.00 | 0.49 | 0.49 | 82 | 1011.8 |
| 20260502211525 | 55 | 21 | 1.0 | 3.0 | 0.00 | 0.49 | 0.49 | 82 | 1011.9 |
| 20260502210545 | 55 | 359 | 1.0 | 4.0 | 0.00 | 0.49 | 0.49 | 82 | 1011.9 |
| 20260502205535 | 55 | 17 | 2.0 | 5.0 | 0.00 | 0.49 | 0.49 | 83 | 1012.0 |
| 20260502204525 | 55 | 2 | 1.0 | 4.0 | 0.00 | 0.49 | 0.49 | 83 | 1012.0 |
| 20260502203525 | 55 | 39 | 1.0 | 3.0 | 0.00 | 0.49 | 0.49 | 83 | 1012.0 |
| 20260502202525 | 55 | 31 | 2.0 | 3.0 | 0.00 | 0.49 | 0.49 | 83 | 1012.1 |
| 20260502201525 | 55 | 9 | 2.0 | 4.0 | 0.00 | 0.49 | 0.49 | 84 | 1012.0 |
| 20260502200517 | 55 | 357 | 2.0 | 6.0 | 0.00 | 0.49 | 0.49 | 82 | 1011.9 |
| 20260502195517 | 55 | 4 | 2.0 | 6.0 | 0.00 | 0.49 | 0.49 | 83 | 1012.0 |
| 20260502194537 | 55 | 359 | 3.0 | 6.0 | 0.00 | 0.49 | 0.49 | 83 | 1012.1 |
| 20260502193517 | 55 | 358 | 4.0 | 10.0 | 0.00 | 0.50 | 0.49 | 84 | 1012.1 |
| 20260502192537 | 54 | 356 | 3.0 | 8.0 | 0.00 | 0.50 | 0.49 | 83 | 1012.3 |
| 20260502191517 | 54 | 13 | 3.0 | 7.0 | 0.00 | 0.50 | 0.49 | 85 | 1012.4 |
| 20260502190537 | 54 | 2 | 3.0 | 6.0 | 0.01 | 0.50 | 0.49 | 87 | 1012.4 |
| 20260502185517 | 54 | 357 | 4.0 | 9.0 | 0.01 | 0.50 | 0.49 | 88 | 1012.5 |
| 20260502184517 | 53 | 8 | 3.0 | 8.0 | 0.01 | 0.50 | 0.49 | 89 | 1012.5 |
| 20260502183518 | 54 | 5 | 4.0 | 7.0 | 0.02 | 0.50 | 0.49 | 89 | 1012.4 |
| 20260502182538 | 53 | 2 | 3.0 | 10.0 | 0.02 | 0.50 | 0.49 | 90 | 1012.6 |
| 20260502181538 | 53 | 1 | 3.0 | 6.0 | 0.02 | 0.50 | 0.49 | 90 | 1013.0 |
| 20260502180518 | 52 | 22 | 2.0 | 6.0 | 0.02 | 0.51 | 0.48 | 91 | 1012.9 |
| 20260502170518 | 52 | 13 | 3.0 | 9.0 | 0.09 | 0.52 | 0.47 | 91 | 1013.3 |
| 20260502163519 | 52 | 10 | 3.0 | 7.0 | 0.12 | 0.50 | 0.44 | 91 | 1013.5 |
| 20260502162519 | 52 | 3 | 4.0 | 9.0 | 0.10 | 0.48 | 0.42 | 91 | 1014.1 |
| 20260502161519 | 52 | 7 | 3.0 | 6.0 | 0.09 | 0.46 | 0.41 | 92 | 1014.0 |
| 20260502160519 | 52 | 3 | 4.0 | 8.0 | 0.07 | 0.43 | 0.38 | 91 | 1014.0 |
| 20260502151520 | 53 | 4 | 4.0 | 6.0 | 0.06 | 0.37 | 0.31 | 93 | 1013.5 |
| 20260502150520 | 53 | 17 | 3.0 | 8.0 | 0.07 | 0.36 | 0.31 | 92 | 1013.7 |
| 20260502130516 | 52 | 7 | 5.0 | 8.0 | 0.07 | 0.24 | 0.17 | 91 | 1013.0 |
| 20260502123516 | 52 | 12 | 4.0 | 7.0 | 0.09 | 0.23 | 0.15 | 91 | 1012.6 |
| 20260502122516 | 52 | 6 | 4.0 | 8.0 | 0.08 | 0.22 | 0.15 | 91 | 1012.4 |
| 20260502121516 | 52 | 6 | 4.0 | 10.0 | 0.07 | 0.20 | 0.13 | 90 | 1012.4 |
| 20260502120516 | 52 | 10 | 5.0 | 10.0 | 0.06 | 0.17 | 0.10 | 90 | 1012.5 |
| 20260502115516 | 52 | 3 | 4.0 | 8.0 | 0.05 | 0.16 | 0.09 | 90 | 1012.5 |
| 20260502114517 | 52 | 2 | 4.0 | 8.0 | 0.05 | 0.15 | 0.07 | 90 | 1012.6 |
| 20260502113517 | 52 | 7 | 5.0 | 8.0 | 0.05 | 0.14 | 0.07 | 89 | 1012.6 |
| 20260502112537 | 53 | 6 | 5.0 | 9.0 | 0.06 | 0.14 | 0.06 | 88 | 1012.7 |
| 20260502111515 | 53 | 11 | 5.0 | 11.0 | 0.06 | 0.13 | 0.06 | 88 | 1012.9 |
| 20260502110516 | 53 | 358 | 5.0 | 8.0 | 0.04 | 0.12 | 0.04 | 88 | 1012.9 |
| 20260502105516 | 53 | 1 | 5.0 | 8.0 | 0.03 | 0.11 | 0.03 | 89 | 1012.8 |
| 20260502104516 | 53 | 357 | 5.0 | 8.0 | 0.03 | 0.10 | 0.03 | 89 | 1012.7 |
| 20260502103516 | 53 | 16 | 6.0 | 9.0 | 0.01 | 0.09 | 0.01 | 89 | 1012.8 |
| 20260502102516 | 53 | 10 | 5.0 | 9.0 | 0.01 | 0.08 | 0.01 | 89 | 1012.7 |
| 20260502101516 | 53 | 10 | 5.0 | 10.0 | 0.00 | 0.07 | 0.00 | 89 | 1012.7 |
| 20260502100517 | 53 | 14 | 4.0 | 9.0 | 0.00 | 0.07 | 0.00 | 89 | 1012.8 |
| 20260502091516 | 53 | 15 | 3.0 | 6.0 | 0.00 | 0.07 | 0.00 | 92 | 1012.8 |
| 20260502090516 | 53 | 16 | 4.0 | 7.0 | 0.00 | 0.07 | 0.00 | 92 | 1012.7 |
| 20260502071515 | 52 | 18 | 3.0 | 4.0 | 0.00 | 0.07 | 0.00 | 95 | 1011.8 |
| 20260502070515 | 52 | 19 | 3.0 | 4.0 | 0.00 | 0.07 | 0.00 | 95 | 1011.9 |
| 20260502065636 | 52 | 15 | 3.0 | 5.0 | 0.00 | 0.07 | 0.00 | 95 | 1012.0 |
| 20260502064516 | 52 | 11 | 2.0 | 4.0 | 0.00 | 0.07 | 0.00 | 95 | 1012.2 |
| 20260502063516 | 52 | 15 | 3.0 | 4.0 | 0.00 | 0.07 | 0.00 | 95 | 1012.2 |
| 20260502062516 | 52 | 14 | 3.0 | 4.0 | 0.00 | 0.07 | 0.00 | 95 | 1012.3 |
| 20260502061516 | 52 | 18 | 1.0 | 3.0 | 0.00 | 0.07 | 0.00 | 95 | 1012.4 |
| 20260502060516 | 52 | 16 | 0.0 | 1.0 | 0.00 | 0.07 | 0.00 | 95 | 1012.5 |
| 20260502055516 | 52 | 30 | 0.0 | 1.0 | 0.00 | 0.07 | 0.00 | 95 | 1012.5 |
| 20260502054516 | 52 | 46 | 0.0 | 1.0 | 0.00 | 0.07 | 0.00 | 95 | 1012.7 |
| 20260502053516 | 52 | 30 | 0.0 | 1.0 | 0.00 | 0.07 | 0.00 | 95 | 1012.9 |
| 20260502052537 | 52 | 28 | 0.0 | 2.0 | 0.00 | 0.07 | 0.00 | 95 | 1012.9 |
| 20260502051517 | 52 | 45 | 1.0 | 2.0 | 0.00 | 0.07 | 0.00 | 95 | 1013.1 |
| 20260502050517 | 52 | 18 | 2.0 | 3.0 | 0.00 | 0.07 | 0.00 | 95 | 1013.2 |
| 20260502045518 | 52 | 11 | 1.0 | 3.0 | 0.00 | 0.07 | 0.00 | 95 | 1013.2 |
| 20260502044517 | 52 | 27 | 1.0 | 2.0 | 0.00 | 0.07 | 0.00 | 95 | 1013.2 |
| 20260502043537 | 52 | 12 | 0.0 | 2.0 | 0.00 | 0.07 | 0.00 | 95 | 1013.2 |
| 20260502042518 | 52 | 12 | 1.0 | 3.0 | 0.00 | 0.07 | 0.00 | 95 | 1013.3 |
| 20260502041515 | 52 | 9 | 2.0 | 3.0 | 0.00 | 0.07 | 0.00 | 95 | 1013.3 |
| 20260502040515 | 52 | 16 | 1.0 | 3.0 | 0.00 | 0.07 | 0.00 | 95 | 1013.2 |
| 20260502035515 | 52 | 1 | 1.0 | 2.0 | 0.00 | 0.07 | 0.07 | 95 | 1013.2 |
| 20260502034515 | 51 | 46 | 0.0 | 2.0 | 0.00 | 0.07 | 0.07 | 95 | 1013.3 |
| 20260502033515 | 51 | 53 | 0.0 | 2.0 | 0.00 | 0.07 | 0.07 | 95 | 1013.4 |
| 20260502032515 | 51 | 0 | 0.0 | 2.0 | 0.00 | 0.07 | 0.07 | 94 | 1013.6 |
| 20260502031516 | 51 | 14 | 0.0 | 2.0 | 0.00 | 0.07 | 0.07 | 94 | 1013.6 |
| 20260502030516 | 51 | 11 | 0.0 | 2.0 | 0.00 | 0.07 | 0.07 | 94 | 1013.8 |
| 20260502025516 | 51 | 338 | 0.0 | 1.0 | 0.00 | 0.07 | 0.07 | 94 | 1013.9 |
| 20260502024516 | 51 | 22 | 0.0 | 2.0 | 0.00 | 0.07 | 0.07 | 94 | 1013.9 |
| 20260502023517 | 51 | 5 | 1.0 | 3.0 | 0.00 | 0.07 | 0.07 | 93 | 1014.0 |
| 20260502022517 | 52 | 14 | 1.0 | 2.0 | 0.00 | 0.07 | 0.07 | 93 | 1014.0 |
| 20260502021517 | 52 | 52 | 0.0 | 2.0 | 0.00 | 0.07 | 0.07 | 93 | 1013.9 |
| 20260502020517 | 52 | 37 | 0.0 | 2.0 | 0.00 | 0.07 | 0.07 | 93 | 1014.1 |
| 20260502015537 | 52 | 57 | 0.0 | 2.0 | 0.00 | 0.07 | 0.07 | 93 | 1013.9 |
| 20260502014517 | 52 | 352 | 0.0 | 1.0 | 0.00 | 0.07 | 0.07 | 92 | 1013.9 |
| 20260502013518 | 52 | 52 | 0.0 | 2.0 | 0.00 | 0.07 | 0.07 | 92 | 1013.8 |
| 20260502012537 | 52 | 29 | 0.0 | 2.0 | 0.00 | 0.07 | 0.07 | 92 | 1013.9 |
| 20260502011518 | 52 | 42 | 0.0 | 2.0 | 0.00 | 0.07 | 0.07 | 92 | 1013.8 |
| 20260502010538 | 52 | 21 | 0.0 | 2.0 | 0.00 | 0.07 | 0.07 | 91 | 1013.5 |
| 20260502005518 | 52 | 37 | 0.0 | 2.0 | 0.00 | 0.07 | 0.07 | 90 | 1013.6 |
| 20260502004518 | 53 | 32 | 0.0 | 2.0 | 0.00 | 0.07 | 0.07 | 89 | 1013.6 |
| 20260502003515 | 53 | 41 | 0.0 | 3.0 | 0.00 | 0.07 | 0.07 | 88 | 1013.4 |
| 20260502002516 | 53 | 12 | 2.0 | 3.0 | 0.00 | 0.07 | 0.07 | 87 | 1013.2 |
| 20260502001516 | 53 | 37 | 1.0 | 2.0 | 0.00 | 0.07 | 0.07 | 87 | 1013.2 |
| 20260502000515 | 53 | 24 | 0.0 | 2.0 | 0.00 | 0.07 | 0.07 | 87 | 1013.1 |
| 20260501235516 | 54 | 43 | 0.0 | 2.0 | 0.00 | 0.07 | 0.07 | 86 | 1013.2 |
| 20260501234516 | 54 | 40 | 0.0 | 2.0 | 0.00 | 0.07 | 0.07 | 85 | 1013.3 |